カタログに戻る

OPS 4682 DEB

運用中PO
NORAD 38457·DEBRIS·🇺🇸 United States

打ち上げ Apr 3, 1965 から Vandenberg Space Force Base

Loading…

次のパス (今後24時間)

TLE

最新Source: Space-Track

元期: Sep 13, 2026, 01:26 UTC

1 38457U 65027FN  26256.05986948  .00000690  00000-0  23102-2 0  9992
2 38457  90.2386   4.1513 0032871 149.8423 210.4600 12.98576023623167

AllMySatでOPS 4682 DEBをリアルタイム追跡

Download on the App Store